ANA987 RJTT-RJCC

Flight info

Callsign ANA987
Flight time 1h 10m
Altitude 35000
Route BRUCE AGRIS Y11 SAMBO Y119 OHMAR Y13 SIRAO Y139 NAVER
Aircraft A321/M-SDE3FGHIRWY/LB1

Departure

Time 2026-02-18 07:25
Airport Tokyo Haneda International Airport (RJTT)

Arrival

Time 2026-02-18 08:35
Airport New Chitose Airport (RJCC)
Time Latitude Longitude Altitude Speed Heading
2026-02-18 07:07 35.54991 139.79061 31 ft 0 kts 239°
2026-02-18 07:12 35.54991 139.79063 31 ft 2 kts 239°
2026-02-18 07:12 35.55001 139.79080 31 ft 2 kts 233°
2026-02-18 07:13 35.55010 139.79096 31 ft 2 kts 227°
2026-02-18 07:13 35.55022 139.79111 31 ft 2 kts 219°
2026-02-18 07:13 35.55035 139.79123 31 ft 2 kts 205°
2026-02-18 07:13 35.55051 139.79129 31 ft 2 kts 181°
2026-02-18 07:14 35.55067 139.79127 31 ft 2 kts 158°
2026-02-18 07:14 35.55079 139.79121 31 ft 1 kts 148°
2026-02-18 07:14 35.55081 139.79120 31 ft 0 kts 148°
2026-02-18 07:17 35.55078 139.79121 31 ft 2 kts 148°
2026-02-18 07:17 35.55042 139.79151 31 ft 8 kts 134°
2026-02-18 07:17 35.55033 139.79210 31 ft 7 kts 71°
2026-02-18 07:18 35.55051 139.79258 30 ft 6 kts 62°
2026-02-18 07:18 35.55069 139.79297 30 ft 5 kts 60°
2026-02-18 07:18 35.55085 139.79330 30 ft 4 kts 60°
2026-02-18 07:19 35.55108 139.79379 30 ft 4 kts 60°
2026-02-18 07:19 35.55138 139.79414 30 ft 8 kts 14°
2026-02-18 07:19 35.55199 139.79385 30 ft 11 kts 329°
2026-02-18 07:19 35.55264 139.79338 30 ft 10 kts 329°
2026-02-18 07:20 35.55322 139.79295 30 ft 9 kts 329°
2026-02-18 07:20 35.55372 139.79259 30 ft 8 kts 331°
2026-02-18 07:20 35.55416 139.79229 30 ft 7 kts 331°
2026-02-18 07:20 35.55458 139.79201 30 ft 7 kts 331°
2026-02-18 07:21 35.55501 139.79172 30 ft 7 kts 331°
2026-02-18 07:21 35.55546 139.79141 30 ft 8 kts 330°
2026-02-18 07:21 35.55591 139.79107 30 ft 7 kts 329°
2026-02-18 07:21 35.55650 139.79065 30 ft 12 kts 329°
2026-02-18 07:22 35.55738 139.79001 30 ft 17 kts 329°
2026-02-18 07:22 35.55855 139.78917 30 ft 22 kts 329°
2026-02-18 07:22 35.55988 139.78821 30 ft 23 kts 329°
2026-02-18 07:23 35.56128 139.78767 29 ft 9 kts 55°
2026-02-18 07:23 35.56169 139.78855 28 ft 15 kts 60°
2026-02-18 07:23 35.56130 139.78984 28 ft 14 kts 152°
2026-02-18 07:24 35.56020 139.79060 28 ft 31 kts 150°
2026-02-18 07:24 35.55805 139.79216 29 ft 77 kts 149°
2026-02-18 07:24 35.55162 139.79672 30 ft 133 kts 149°
2026-02-18 07:24 35.54233 139.80331 64 ft 171 kts 150°
2026-02-18 07:25 35.53267 139.81121 727 ft 164 kts 138°
2026-02-18 07:25 35.52454 139.82104 1386 ft 164 kts 135°
2026-02-18 07:25 35.51666 139.83133 1911 ft 170 kts 134°
2026-02-18 07:25 35.50807 139.84251 2104 ft 190 kts 134°
2026-02-18 07:26 35.49838 139.85499 2242 ft 213 kts 135°
2026-02-18 07:26 35.48754 139.86881 2410 ft 236 kts 135°
2026-02-18 07:26 35.47576 139.88371 2799 ft 253 kts 135°
2026-02-18 07:27 35.45295 139.91817 4229 ft 270 kts 107°
2026-02-18 07:27 35.45247 139.94107 4989 ft 274 kts 72°
2026-02-18 07:27 35.46161 139.96144 5767 ft 275 kts 50°
2026-02-18 07:27 35.47506 139.97814 6543 ft 276 kts 29°
2026-02-18 07:28 35.49267 139.98714 7268 ft 275 kts
2026-02-18 07:28 35.51154 139.98984 8023 ft 273 kts 354°
2026-02-18 07:28 35.53026 139.98668 8802 ft 271 kts 339°
2026-02-18 07:28 35.54849 139.98055 9614 ft 273 kts 339°
2026-02-18 07:29 35.56689 139.97437 10276 ft 279 kts 338°
2026-02-18 07:29 35.58635 139.96769 10479 ft 302 kts 338°
2026-02-18 07:29 35.60768 139.96176 10701 ft 327 kts 347°
2026-02-18 07:29 35.63090 139.96134 11256 ft 341 kts 357°
2026-02-18 07:30 35.65476 139.96307 11907 ft 346 kts 356°
2026-02-18 07:30 35.67904 139.96469 12551 ft 352 kts 356°
2026-02-18 07:30 35.70362 139.96628 13190 ft 357 kts 356°
2026-02-18 07:31 35.75232 139.96054 14364 ft 352 kts 336°
2026-02-18 07:31 35.77527 139.95035 14737 ft 351 kts 332°
2026-02-18 07:31 35.79809 139.93960 14821 ft 351 kts 331°
2026-02-18 07:31 35.82103 139.92874 15401 ft 354 kts 331°
2026-02-18 07:32 35.84409 139.91784 16076 ft 356 kts 331°
2026-02-18 07:32 35.86731 139.90689 16720 ft 359 kts 331°
2026-02-18 07:32 35.89159 139.89796 17312 ft 374 kts 344°
2026-02-18 07:32 35.91824 139.89755 17895 ft 389 kts 355°
2026-02-18 07:33 35.94545 139.89961 18425 ft 394 kts 356°
2026-02-18 07:33 35.97288 139.90206 18951 ft 397 kts 356°
2026-02-18 07:33 36.00052 139.90474 19470 ft 400 kts 357°
2026-02-18 07:33 36.02842 139.90746 19993 ft 403 kts 356°
2026-02-18 07:34 36.05646 139.91012 20507 ft 405 kts 356°
2026-02-18 07:34 36.08471 139.91276 21018 ft 408 kts 356°
2026-02-18 07:34 36.11310 139.91534 21522 ft 411 kts 356°
2026-02-18 07:34 36.14169 139.91788 22005 ft 414 kts 356°
2026-02-18 07:35 36.17048 139.92038 22508 ft 416 kts 356°
2026-02-18 07:35 36.19949 139.92289 22992 ft 419 kts 356°
2026-02-18 07:35 36.22868 139.92542 23452 ft 422 kts 356°
2026-02-18 07:35 36.25805 139.92801 23838 ft 425 kts 356°
2026-02-18 07:36 36.28760 139.93063 24223 ft 428 kts 356°
2026-02-18 07:36 36.31739 139.93328 24607 ft 430 kts 356°
2026-02-18 07:36 36.37752 139.93866 25368 ft 436 kts 356°
2026-02-18 07:37 36.40782 139.94139 25738 ft 439 kts 356°
2026-02-18 07:37 36.43832 139.94394 26103 ft 440 kts 355°
2026-02-18 07:37 36.46901 139.94572 26467 ft 442 kts 353°
2026-02-18 07:37 36.49979 139.94692 26823 ft 444 kts 353°
2026-02-18 07:38 36.53072 139.94789 27175 ft 446 kts 353°
2026-02-18 07:38 36.56186 139.94882 27529 ft 449 kts 353°
2026-02-18 07:38 36.59314 139.94987 27878 ft 451 kts 353°
2026-02-18 07:38 36.62457 139.95106 28218 ft 454 kts 353°
2026-02-18 07:39 36.65627 139.95238 28548 ft 457 kts 353°
2026-02-18 07:39 36.68814 139.95377 28870 ft 459 kts 353°
2026-02-18 07:39 36.71979 139.95521 29173 ft 462 kts 353°
2026-02-18 07:39 36.75195 139.95668 29478 ft 464 kts 353°
2026-02-18 07:40 36.78434 139.95813 29789 ft 467 kts 353°
2026-02-18 07:40 36.81690 139.95954 30053 ft 469 kts 353°
2026-02-18 07:40 36.88253 139.96411 30598 ft 481 kts
2026-02-18 07:41 36.91554 139.97219 30954 ft 484 kts
2026-02-18 07:41 36.94855 139.98076 31295 ft 484 kts
2026-02-18 07:41 36.98149 139.98928 31633 ft 484 kts
2026-02-18 07:41 37.01449 139.99780 31964 ft 484 kts
2026-02-18 07:42 37.04748 140.00632 32301 ft 484 kts
2026-02-18 07:42 37.08046 140.01484 32643 ft 484 kts
2026-02-18 07:42 37.11350 140.02336 32960 ft 484 kts
2026-02-18 07:42 37.14646 140.03185 33275 ft 484 kts
2026-02-18 07:43 37.17943 140.04036 33591 ft 484 kts
2026-02-18 07:43 37.21242 140.04887 33884 ft 484 kts
2026-02-18 07:43 37.24539 140.05737 34130 ft 484 kts
2026-02-18 07:43 37.27839 140.06588 34379 ft 484 kts
2026-02-18 07:44 37.31136 140.07440 34626 ft 484 kts
2026-02-18 07:44 37.34440 140.08297 34801 ft 485 kts
2026-02-18 07:45 37.44268 140.10868 34855 ft 479 kts
2026-02-18 07:45 37.50788 140.12568 34872 ft 478 kts
2026-02-18 07:46 37.57255 140.14251 34869 ft 478 kts
2026-02-18 07:46 37.63766 140.15956 34869 ft 478 kts
2026-02-18 07:47 37.70279 140.17659 34877 ft 478 kts
2026-02-18 07:47 37.76793 140.19362 34887 ft 477 kts
2026-02-18 07:48 37.83296 140.21063 34892 ft 477 kts
2026-02-18 07:48 37.93015 140.23626 34887 ft 478 kts
2026-02-18 07:49 37.99526 140.25346 34885 ft 478 kts
2026-02-18 07:49 38.06041 140.27067 34881 ft 478 kts
2026-02-18 07:50 38.12545 140.28788 34861 ft 478 kts
2026-02-18 07:50 38.19049 140.30515 34839 ft 478 kts
2026-02-18 07:51 38.25561 140.32246 34825 ft 477 kts
2026-02-18 07:51 38.32059 140.33973 34809 ft 477 kts
2026-02-18 07:52 38.38556 140.35708 34808 ft 477 kts
2026-02-18 07:53 38.48296 140.38695 34802 ft 481 kts
2026-02-18 07:53 38.54774 140.40872 34814 ft 481 kts
2026-02-18 07:54 38.61253 140.43004 34822 ft 481 kts
2026-02-18 07:54 38.67748 140.45090 34839 ft 481 kts
2026-02-18 07:55 38.74241 140.47170 34847 ft 481 kts
2026-02-18 07:55 38.80697 140.49252 34857 ft 482 kts
2026-02-18 07:56 38.87192 140.51362 34858 ft 481 kts
2026-02-18 07:56 38.96944 140.54539 34860 ft 482 kts
2026-02-18 07:57 39.03444 140.56658 34861 ft 482 kts
2026-02-18 07:57 39.09946 140.58782 34859 ft 482 kts
2026-02-18 07:58 39.16458 140.60914 34854 ft 483 kts
2026-02-18 07:58 39.22972 140.63062 34848 ft 483 kts
2026-02-18 07:59 39.29490 140.65210 34850 ft 484 kts
2026-02-18 07:59 39.36017 140.67358 34849 ft 484 kts
2026-02-18 08:00 39.42544 140.69511 34844 ft 484 kts
2026-02-18 08:01 39.52338 140.72762 34842 ft 485 kts
2026-02-18 08:01 39.58873 140.74938 34835 ft 484 kts
2026-02-18 08:02 39.65394 140.77105 34832 ft 484 kts
2026-02-18 08:02 39.71919 140.79283 34833 ft 484 kts
2026-02-18 08:03 39.78437 140.81463 34833 ft 484 kts
2026-02-18 08:03 39.84960 140.83640 34833 ft 484 kts
2026-02-18 08:04 39.91464 140.85816 34813 ft 492 kts
2026-02-18 08:04 40.01572 140.89209 34802 ft 505 kts
2026-02-18 08:05 40.08382 140.91517 34799 ft 506 kts
2026-02-18 08:05 40.15190 140.93822 34800 ft 506 kts
2026-02-18 08:06 40.22047 140.95163 34804 ft 492 kts 354°
2026-02-18 08:06 40.28888 140.95364 34809 ft 492 kts 354°
2026-02-18 08:07 40.35744 140.95586 34816 ft 493 kts 355°
2026-02-18 08:07 40.42604 140.95820 34815 ft 493 kts 355°
2026-02-18 08:08 40.49452 140.96048 34812 ft 492 kts 355°
2026-02-18 08:09 40.59732 140.96382 34802 ft 493 kts 355°
2026-02-18 08:09 40.66576 140.96618 34794 ft 493 kts 355°
2026-02-18 08:10 40.73439 140.96846 34798 ft 493 kts 355°
2026-02-18 08:10 40.80288 140.97072 34804 ft 493 kts 355°
2026-02-18 08:11 40.87148 140.97297 34800 ft 493 kts 355°
2026-02-18 08:11 40.93954 140.97525 34804 ft 493 kts 355°
2026-02-18 08:12 41.00820 140.97752 34812 ft 493 kts 355°
2026-02-18 08:12 41.11117 140.98088 34820 ft 494 kts 355°
2026-02-18 08:13 41.17988 140.98328 34818 ft 494 kts 356°
2026-02-18 08:13 41.24868 140.98576 34820 ft 494 kts 356°
2026-02-18 08:14 41.30589 140.99066 34820 ft 501 kts
2026-02-18 08:14 41.37304 141.01876 34821 ft 508 kts 16°
2026-02-18 08:15 41.43927 141.05157 34803 ft 505 kts 16°
2026-02-18 08:15 41.47180 141.06767 34771 ft 491 kts 16°
2026-02-18 08:15 41.50352 141.08337 34653 ft 485 kts 16°
2026-02-18 08:16 41.53513 141.09897 34411 ft 483 kts 16°
2026-02-18 08:16 41.56663 141.11448 34163 ft 483 kts 16°
2026-02-18 08:16 41.59810 141.13018 33933 ft 484 kts 19°
2026-02-18 08:16 41.62817 141.15068 33693 ft 487 kts 26°
2026-02-18 08:17 41.65787 141.17267 33355 ft 487 kts 26°
2026-02-18 08:17 41.71701 141.21648 32101 ft 484 kts 26°
2026-02-18 08:17 41.74637 141.23826 31496 ft 483 kts 26°
2026-02-18 08:18 41.77573 141.26006 30905 ft 482 kts 26°
2026-02-18 08:18 41.80504 141.28186 30311 ft 481 kts 26°
2026-02-18 08:18 41.83427 141.30363 29698 ft 480 kts 26°
2026-02-18 08:18 41.86339 141.32535 29071 ft 477 kts 26°
2026-02-18 08:19 41.89231 141.34695 28492 ft 473 kts 26°
2026-02-18 08:19 41.92128 141.36751 27881 ft 470 kts 24°
2026-02-18 08:19 41.95052 141.38663 27324 ft 466 kts 22°
2026-02-18 08:19 41.97991 141.40475 26769 ft 462 kts 21°
2026-02-18 08:20 42.00916 141.42233 26230 ft 459 kts 21°
2026-02-18 08:20 42.03825 141.43990 25700 ft 456 kts 21°
2026-02-18 08:20 42.06692 141.45754 25186 ft 452 kts 22°
2026-02-18 08:20 42.09535 141.47539 24681 ft 449 kts 22°
2026-02-18 08:21 42.12350 141.49334 24181 ft 446 kts 23°
2026-02-18 08:21 42.17912 141.52905 23136 ft 440 kts 23°
2026-02-18 08:21 42.20671 141.54677 22605 ft 436 kts 23°
2026-02-18 08:22 42.23399 141.56382 22121 ft 429 kts 18°
2026-02-18 08:22 42.26248 141.57351 21640 ft 416 kts
2026-02-18 08:22 42.29103 141.57670 21168 ft 410 kts 360°
2026-02-18 08:22 42.31927 141.57964 20704 ft 405 kts 360°
2026-02-18 08:23 42.34726 141.58249 20246 ft 401 kts 360°
2026-02-18 08:23 42.37491 141.58529 19785 ft 397 kts
2026-02-18 08:23 42.40231 141.58811 19352 ft 393 kts
2026-02-18 08:23 42.42945 141.59092 18909 ft 389 kts
2026-02-18 08:24 42.45622 141.59371 18458 ft 379 kts
2026-02-18 08:24 42.48242 141.59647 17924 ft 375 kts
2026-02-18 08:24 42.50826 141.59919 17200 ft 369 kts
2026-02-18 08:24 42.53340 141.60226 16502 ft 358 kts
2026-02-18 08:25 42.55746 141.60569 15814 ft 348 kts
2026-02-18 08:25 42.60445 141.61296 14495 ft 334 kts
2026-02-18 08:25 42.62749 141.61649 13847 ft 331 kts
2026-02-18 08:26 42.65028 141.61994 13173 ft 328 kts
2026-02-18 08:26 42.67290 141.62329 12470 ft 325 kts
2026-02-18 08:26 42.69523 141.62652 11787 ft 321 kts
2026-02-18 08:26 42.71729 141.62969 11115 ft 317 kts
2026-02-18 08:27 42.73913 141.63283 10458 ft 314 kts
2026-02-18 08:27 42.76068 141.63615 9812 ft 309 kts
2026-02-18 08:27 42.78185 141.64130 8800 ft 312 kts 10°
2026-02-18 08:27 42.80329 141.64720 7720 ft 317 kts 12°
2026-02-18 08:28 42.82497 141.65347 6657 ft 320 kts 13°
2026-02-18 08:28 42.84689 141.65988 5595 ft 322 kts 12°
2026-02-18 08:28 42.86917 141.66123 4542 ft 323 kts 353°
2026-02-18 08:28 42.89121 141.65734 3722 ft 315 kts 350°
2026-02-18 08:29 42.91252 141.65331 3134 ft 300 kts
2026-02-18 08:29 42.94376 141.67495 3000 ft 226 kts 66°
2026-02-18 08:29 42.95355 141.69170 3041 ft 217 kts 69°
2026-02-18 08:30 42.95537 141.70862 3051 ft 159 kts 123°
2026-02-18 08:30 42.94786 141.71586 3166 ft 140 kts 180°
2026-02-18 08:30 42.93909 141.70885 3186 ft 154 kts 214°
2026-02-18 08:30 42.93185 141.69853 2901 ft 148 kts 217°
2026-02-18 08:31 42.92471 141.68957 2808 ft 134 kts 200°
2026-02-18 08:31 42.91617 141.68422 2712 ft 138 kts 197°
2026-02-18 08:31 42.90740 141.67905 2647 ft 137 kts 192°
2026-02-18 08:31 42.89820 141.67559 2610 ft 138 kts 186°
2026-02-18 08:32 42.88865 141.67364 2452 ft 139 kts 181°
2026-02-18 08:32 42.87902 141.67337 2129 ft 138 kts 174°
2026-02-18 08:32 42.86941 141.67420 1813 ft 138 kts 172°
2026-02-18 08:32 42.85988 141.67559 1591 ft 138 kts 170°
2026-02-18 08:33 42.85035 141.67712 1421 ft 138 kts 170°
2026-02-18 08:33 42.83114 141.68047 916 ft 139 kts 168°
2026-02-18 08:33 42.82150 141.68222 739 ft 140 kts 169°
2026-02-18 08:34 42.81193 141.68378 575 ft 138 kts 168°
2026-02-18 08:34 42.80243 141.68562 406 ft 134 kts 167°
2026-02-18 08:34 42.79342 141.68719 217 ft 128 kts 168°
2026-02-18 08:34 42.78475 141.68868 108 ft 120 kts 168°
2026-02-18 08:35 42.77733 141.69012 85 ft 87 kts 173°
2026-02-18 08:35 42.77303 141.69086 84 ft 35 kts 172°
2026-02-18 08:35 42.77131 141.69117 84 ft 18 kts 173°
2026-02-18 08:35 42.77063 141.69019 82 ft 16 kts 266°
2026-02-18 08:36 42.77071 141.68937 70 ft 7 kts 299°